Date,TemperatureHighF,TemperatureAvgF,TemperatureLowF,DewpointHighF,DewpointAvgF,DewpointLowF,HumidityHigh,HumidityAvg,HumidityLow,PressureMaxIn,PressureMinIn,WindSpeedMaxMPH,WindSpeedAvgMPH,GustSpeedMaxMPH,PrecipitationSumIn
2013-5-14,50,49,48,-100,-100,-100,59,58,57,0.00,40.00,0,-999,0,0.00
2013-5-15,69,55,41,-100,-100,-100,74,52,31,0.00,40.00,0,-999,0,0.00
2013-5-16,68,58,52,-100,-100,-100,77,62,47,0.00,40.00,0,-999,0,0.00
2013-5-17,79,58,48,-100,-100,-100,81,64,37,0.00,40.00,0,-999,0,0.00
2013-5-18,65,55,49,-100,-100,-100,76,65,50,0.00,40.00,0,-999,0,0.00
2013-5-19,79,58,50,-100,-100,-100,74,61,37,0.00,40.00,0,-999,0,0.00
2013-5-20,84,62,46,-100,-100,-100,79,57,30,0.00,40.00,0,-999,0,0.00
2013-5-21,75,57,44,-100,-100,-100,84,63,39,0.00,40.00,0,-999,0,0.00
2013-5-22,55,45,39,-100,-100,-100,85,76,60,0.00,40.00,0,-999,0,0.00
2013-5-23,70,49,39,-100,-100,-100,84,65,38,0.00,40.00,0,-999,0,0.00
2013-5-24,57,47,39,-100,-100,-100,78,71,54,0.00,40.00,0,-999,0,0.00
2013-5-25,72,53,42,-100,-100,-100,81,62,38,0.00,40.00,0,-999,0,0.00
2013-5-26,79,59,46,-100,-100,-100,76,55,31,0.00,40.00,0,-999,0,0.00
2013-5-27,71,58,52,-100,-100,-100,81,64,42,0.00,40.00,0,-999,0,0.00
2013-5-28,68,57,50,-100,-100,-100,85,72,52,0.00,40.00,0,-999,0,0.00
2013-5-29,62,54,47,-100,-100,-100,85,71,56,0.00,40.00,0,-999,0,0.00
2013-5-30,69,55,45,-100,-100,-100,85,64,37,0.00,40.00,0,-999,0,0.00
2013-5-31,76,56,45,-100,-100,-100,73,55,31,0.00,40.00,0,-999,0,0.00
2013-6-1,79,61,46,-100,-100,-100,69,51,30,0.00,40.00,0,-999,0,0.00
2013-6-2,74,56,50,-100,-100,-100,82,68,47,0.00,40.00,0,-999,0,0.00
2013-6-3,79,60,47,-100,-100,-100,82,63,32,0.00,40.00,0,-999,0,0.00
2013-6-4,88,65,51,-100,-100,-100,78,55,29,0.00,40.00,0,-999,0,0.00
2013-6-5,89,69,52,-100,-100,-100,73,50,27,0.00,40.00,0,-999,0,0.00
2013-6-6,94,77,62,-100,-100,-100,62,43,27,0.00,40.00,0,-999,0,0.00
2013-6-7,86,70,60,-100,-100,-100,65,47,26,0.00,40.00,0,-999,0,0.00
2013-6-8,87,67,50,-100,-100,-100,65,43,22,0.00,40.00,0,-999,0,0.00
2013-6-9,81,66,54,-100,-100,-100,61,40,20,0.00,40.00,0,-999,0,0.00
2013-6-10,89,65,50,-100,-100,-100,56,40,23,0.00,40.00,0,-999,0,0.00
2013-6-11,76,62,51,-100,-100,-100,61,47,28,0.00,40.00,0,-999,0,0.00
2013-6-12,76,59,48,-100,-100,-100,65,49,32,0.00,40.00,0,-999,0,0.00
2013-6-13,76,58,48,-100,-100,-100,68,54,32,0.00,40.00,0,-999,0,0.00
2013-6-14,72,58,47,-100,-100,-100,76,55,35,0.00,40.00,0,-999,0,0.00
2013-6-15,91,66,47,-100,-100,-100,73,46,22,0.00,40.00,0,-999,0,0.00
2013-6-16,94,72,56,-100,-100,-100,62,43,23,0.00,40.00,0,-999,0,0.00
2013-6-17,90,72,61,-100,-100,-100,62,46,28,0.00,40.00,0,-999,0,0.00
2013-6-18,67,62,56,-100,-100,-100,81,66,50,0.00,40.00,0,-999,0,0.00
2013-6-19,56,54,50,-100,-100,-100,84,81,72,0.00,40.00,0,-999,0,0.00
2013-6-20,51,50,49,-100,-100,-100,88,85,84,0.00,40.00,0,-999,0,0.00
2013-6-21,73,56,49,-100,-100,-100,88,76,50,0.00,40.00,0,-999,0,0.00
2013-6-22,71,59,49,-100,-100,-100,83,68,46,0.00,40.00,0,-999,0,0.00
2013-6-23,82,65,52,-100,-100,-100,80,60,36,0.00,40.00,0,-999,0,0.00
2013-6-24,66,61,56,-100,-100,-100,84,78,66,0.00,40.00,0,-999,0,0.00
2013-6-25,69,60,51,-100,-100,-100,86,76,59,0.00,40.00,0,-999,0,0.00
2013-6-26,75,64,56,-100,-100,-100,82,68,51,0.00,40.00,0,-999,0,0.00
2013-6-27,83,69,57,-100,-100,-100,83,65,45,0.00,40.00,0,-999,0,0.00
2013-6-28,98,75,60,-100,-100,-100,78,56,32,0.00,40.00,0,-999,0,0.00
2013-6-29,79,70,65,-100,-100,-100,77,69,57,0.00,40.00,0,-999,0,0.00
2013-6-30,97,76,63,-100,-100,-100,84,58,29,0.00,40.00,0,-999,0,0.00
2013-7-1,106,83,67,-100,-100,-100,72,50,27,0.00,40.00,0,-999,0,0.00
2013-7-2,106,84,69,-100,-100,-100,74,52,28,0.00,40.00,0,-999,0,0.00
2013-7-3,98,80,68,-100,-100,-100,64,43,19,0.00,40.00,0,-999,0,0.00
2013-7-4,93,74,62,-100,-100,-100,56,41,24,0.00,40.00,0,-999,0,0.00
2013-7-5,88,71,57,-100,-100,-100,63,44,26,0.00,40.00,0,-999,0,0.00
2013-7-6,96,71,57,-100,-100,-100,62,46,27,0.00,40.00,0,-999,0,0.00
2013-7-7,97,75,61,-100,-100,-100,64,43,23,0.00,40.00,0,-999,0,0.00
2013-7-8,91,72,64,-100,-100,-100,61,48,28,0.00,40.00,0,-999,0,0.00
2013-7-9,99,75,60,-100,-100,-100,73,47,21,0.00,40.00,0,-999,0,0.00
2013-7-10,100,77,60,-100,-100,-100,70,42,21,0.00,40.00,0,-999,0,0.00
2013-7-11,89,72,60,-100,-100,-100,55,36,16,0.00,40.00,0,-999,0,0.00
2013-7-12,86,66,54,-100,-100,-100,50,37,20,0.00,40.00,0,-999,0,0.00
2013-7-13,89,68,54,-100,-100,-100,55,41,23,0.00,40.00,0,-999,0,0.00
2013-7-14,95,71,53,-100,-100,-100,70,43,18,0.00,40.00,0,-999,0,0.00
2013-7-15,94,72,57,-100,-100,-100,58,38,17,0.00,40.00,0,-999,0,0.00
2013-7-16,97,77,60,-100,-100,-100,55,39,25,0.00,40.00,0,-999,0,0.00
2013-7-17,97,80,70,-100,-100,-100,66,43,24,0.00,40.00,0,-999,0,0.00
2013-7-18,101,78,62,-100,-100,-100,68,41,17,0.00,40.00,0,-999,0,0.00
2013-7-19,104,79,61,-100,-100,-100,64,39,17,0.00,40.00,0,-999,0,0.00
2013-7-20,102,79,62,-100,-100,-100,61,34,12,0.00,40.00,0,-999,0,0.00
2013-7-21,103,79,61,-100,-100,-100,45,30,16,0.00,40.00,0,-999,0,0.00
2013-7-22,102,79,64,-100,-100,-100,53,35,17,0.00,40.00,0,-999,0,0.00
2013-7-23,106,79,63,-100,-100,-100,53,35,15,0.00,40.00,0,-999,0,0.00
2013-7-24,107,80,62,-100,-100,-100,58,35,14,0.00,40.00,0,-999,0,0.00
2013-7-25,74,67,62,-100,-100,-100,55,48,37,0.00,40.00,0,-999,0,0.00
2013-7-28,93,78,66,-100,-100,-100,46,33,21,0.00,40.00,0,-999,0,0.00
2013-7-29,95,70,56,-100,-100,-100,57,41,19,0.00,40.00,0,-999,0,0.00
2013-7-30,97,75,63,-100,-100,-100,61,42,19,0.00,40.00,0,-999,0,0.00
2013-7-31,87,74,63,-100,-100,-100,58,42,26,0.00,40.00,0,-999,0,0.00
2013-8-1,76,67,60,-100,-100,-100,80,57,41,0.00,40.00,0,-999,0,0.00
2013-8-2,62,59,56,-100,-100,-100,87,85,80,0.00,40.00,0,-999,0,0.00
2013-8-3,88,66,58,-100,-100,-100,88,72,41,0.00,40.00,0,-999,0,0.00
2013-8-4,98,72,56,-100,-100,-100,83,59,26,0.00,40.00,0,-999,0,0.00
2013-8-5,95,73,61,-100,-100,-100,76,55,29,0.00,40.00,0,-999,0,0.00
2013-8-6,103,76,60,-100,-100,-100,75,52,23,0.00,40.00,0,-999,0,0.00
2013-8-7,104,77,60,-100,-100,-100,72,44,18,0.00,40.00,0,-999,0,0.00
2013-8-8,101,77,62,-100,-100,-100,59,41,20,0.00,40.00,0,-999,0,0.00
2013-8-9,101,80,66,-100,-100,-100,60,46,28,0.00,40.00,0,-999,0,0.00
2013-8-10,100,78,67,-100,-100,-100,70,50,25,0.00,40.00,0,-999,0,0.00
2013-8-11,99,79,67,-100,-100,-100,62,46,28,0.00,40.00,0,-999,0,0.00
2013-8-12,100,79,63,-100,-100,-100,72,46,24,0.00,40.00,0,-999,0,0.00
2013-8-13,101,78,64,-100,-100,-100,63,43,22,0.00,40.00,0,-999,0,0.00
2013-8-14,102,78,65,-100,-100,-100,71,49,23,0.00,40.00,0,-999,0,0.00
2013-8-15,104,79,66,-100,-100,-100,54,38,22,0.00,40.00,0,-999,0,0.00
2013-8-16,95,75,64,-100,-100,-100,59,45,26,0.00,40.00,0,-999,0,0.00
2013-8-17,91,74,63,-100,-100,-100,67,50,29,0.00,40.00,0,-999,0,0.00
2013-8-18,94,70,60,-100,-100,-100,66,49,25,0.00,40.00,0,-999,0,0.00
2013-8-19,93,73,61,-100,-100,-100,59,42,24,0.00,40.00,0,-999,0,0.00
2013-8-20,95,72,59,-100,-100,-100,58,38,16,0.00,40.00,0,-999,0,0.00
2013-8-21,96,71,55,-100,-100,-100,64,41,18,0.00,40.00,0,-999,0,0.00
2013-8-22,98,76,62,-100,-100,-100,55,40,23,0.00,40.00,0,-999,0,0.00
2013-8-23,90,74,65,-100,-100,-100,63,48,32,0.00,40.00,0,-999,0,0.00
2013-8-24,91,72,59,-100,-100,-100,70,48,29,0.00,40.00,0,-999,0,0.00
2013-8-25,95,71,60,-100,-100,-100,83,58,31,0.00,40.00,0,-999,0,0.00
2013-8-26,86,70,57,-100,-100,-100,83,57,33,0.00,40.00,0,-999,0,0.00
2013-8-27,97,71,56,-100,-100,-100,74,52,27,0.00,40.00,0,-999,0,0.00
2013-8-28,96,74,60,-100,-100,-100,80,49,25,0.00,40.00,0,-999,0,0.00
2013-8-29,89,71,62,-100,-100,-100,67,54,33,0.00,40.00,0,-999,0,0.00
2013-8-30,91,71,61,-100,-100,-100,72,50,25,0.00,40.00,0,-999,0,0.00
2013-8-31,100,71,54,-100,-100,-100,70,47,21,0.00,40.00,0,-999,0,0.00
2013-9-1,103,74,59,-100,-100,-100,60,43,20,0.00,40.00,0,-999,0,0.00
2013-9-2,87,70,63,-100,-100,-100,70,58,39,0.00,40.00,0,-999,0,0.00
2013-9-3,94,74,64,-100,-100,-100,75,59,34,0.00,40.00,0,-999,0,0.00
2013-9-4,92,79,64,-100,-100,-100,75,53,36,0.00,40.00,0,-999,0,0.00
2013-9-5,90,71,64,-100,-100,-100,84,72,48,0.00,40.00,0,-999,0,0.00
2013-9-6,73,63,59,-100,-100,-100,84,72,55,0.00,40.00,0,-999,0,0.00
2013-9-7,74,62,56,-100,-100,-100,84,72,48,0.00,40.00,0,-999,0,0.00
2013-9-8,88,63,53,-100,-100,-100,87,72,38,0.00,40.00,0,-999,0,0.00
2013-9-9,97,70,58,-100,-100,-100,73,57,30,0.00,40.00,0,-999,0,0.00
2013-9-10,98,72,58,-100,-100,-100,78,57,26,0.00,40.00,0,-999,0,0.00
2013-9-11,106,76,62,-100,-100,-100,69,50,22,0.00,40.00,0,-999,0,0.00
2013-9-12,96,77,68,-100,-100,-100,59,46,27,0.00,40.00,0,-999,0,0.00
2013-9-13,105,74,59,-100,-100,-100,72,52,24,0.00,40.00,0,-999,0,0.00
2013-9-14,101,76,63,-100,-100,-100,66,47,24,0.00,40.00,0,-999,0,0.00
2013-9-15,102,77,65,-100,-100,-100,76,43,24,0.00,40.00,0,-999,0,0.00
2013-9-16,83,64,58,-100,-100,-100,80,68,40,0.00,40.00,0,-999,0,0.00
2013-9-17,73,59,52,-100,-100,-100,83,68,48,0.00,40.00,0,-999,0,0.00
2013-9-18,72,56,49,-100,-100,-100,85,67,38,0.00,40.00,0,-999,0,0.00
2013-9-19,87,60,46,-100,-100,-100,79,57,25,0.00,40.00,0,-999,0,0.00
2013-9-20,94,47,0,0,-75,-100,75,54,25,0.00,40.00,0,-999,0,0.00
2013-9-21,69,37,0,49,28,0,70,57,44,0.00,40.00,0,-999,0,0.00
2013-9-22,64,54,50,47,45,41,82,69,49,0.00,40.00,0,-999,0,0.00
2013-9-23,61,54,49,47,44,42,82,69,51,0.00,40.00,0,-999,0,0.00
2013-9-24,73,54,50,49,43,37,84,67,40,0.00,40.00,0,-999,0,0.00
2013-9-25,56,50,46,47,43,40,83,77,66,0.00,40.00,0,-999,0,0.00
2013-9-26,70,53,43,44,40,37,84,63,36,0.00,40.00,0,-999,0,0.00
2013-9-27,54,49,45,43,40,37,79,69,55,0.00,40.00,0,-999,0,0.00
2013-9-28,57,53,49,52,48,43,86,82,74,0.00,40.00,0,-999,0,0.00
2013-9-29,58,50,46,50,44,41,86,77,63,0.00,40.00,0,-999,0,0.00
2013-9-30,59,51,44,46,41,37,86,69,52,0.00,40.00,0,-999,0,0.00
2013-10-1,56,47,41,44,39,36,82,73,57,0.00,40.00,0,-999,0,0.00
2013-10-2,54,46,39,41,38,34,82,72,58,0.00,40.00,0,-999,0,0.00
2013-10-3,70,48,38,43,36,33,81,63,35,0.00,40.00,0,-999,0,0.00
2013-10-4,69,47,36,41,34,22,78,62,30,0.00,40.00,0,-999,0,0.00
2013-10-5,53,41,37,40,32,30,77,70,59,0.00,40.00,0,-999,0,0.00
2013-10-9,54,54,54,40,40,40,58,58,58,0.00,40.00,0,-999,0,0.00